Tracking 22458 objects as of 4-Mar-2021
HD Live streaming from Space Station
objects crossing your sky now

DELTA 2 R/B(2)

Track DELTA 2 R/B(2) now!


NORAD ID: 23018
Int'l Code: 1994-013C
Perigee: 3,033.0 km
Apogee: 37,029.6 km
Inclination: 24.7 °
Period: 711.6 minutes
Semi major axis: 26402 km
RCS: 3.4432 m2 (large)
Launch date: February 19, 1994
Source: United States (US)
Launch site: AIR FORCE EASTERN TEST RANGE (AFETR)

Note: This is a ROCKET BODY
aabbcc
Your satellite tracking list
Your tracking list is empty




NASA's NSSDC Master Catalog

Two Line Element Set (TLE):
1 23018U 94013C   21061.81840805  .00000283  00000-0  00000-0 0  9998
2 23018  24.7166 237.7690 6438192 319.9397   6.8853  2.02367372199629
Source of the keplerian elements: AFSPC